Regional Weather Roundup
Issued by NWS Sterling, VA

Home | Current Version | Previous Version | Graphics & Text | Print | Product List | Glossary On
Versions: 1 2 3 4 5 6 7 8 9 10 11 12 13 14 15 16 17 18 19 20 21 22 23 24 25 26 27
000
ASUS41 KLWX 201110
RWRLWX

REGIONAL WEATHER ROUNDUP
NATIONAL WEATHER SERVICE BALTIMORE MD/WASHINGTON DC
700 AM EDT SUN APR 20 2014

Note: "FAIR" indicates few or no clouds below 12,000 feet
with no significant weather and/or obstructions to visibility.
 TC=TEMPERATURE CELSIUS

 * =Non NWS site. Station does not report precipitation (e.g. rain,
    snow, etc.), thunder, or fog.

DCZ001-MDZ009-015-VAZ040>042-051-053>054-201200-
WASHINGTON METRO

CITY           SKY/WX    TMP DP  RH WIND       PRES   REMARKS
WASHINGTON NAT CLOUDY    51  32  48 N14       30.36R
DULLES         CLOUDY    45  29  53 N6        30.36R
ANDREWS AFB    CLOUDY    45  37  71 NE10      30.34R
FT BELVOIR     CLOUDY    46  36  68 NW2       30.36R
QUANTICO       CLOUDY    50  37  61 NE9       30.36R
COLLEGE PARK*  CLOUDY    46  34  61 CALM      30.36R
LEESBURG*      CLOUDY    46  32  57 N7        30.38R
MANASSAS*      CLOUDY    45  34  65 N8        30.35R
GAITHERSBURG*  MOCLDY    43  27  52 CALM      30.39R

$$

MDZ006>007-011-014-201200-
BALTIMORE METRO

CITY           SKY/WX    TMP DP  RH WIND       PRES   REMARKS
BWI AIRPORT    CLOUDY    49  30  48 NE9       30.36R
MD SCIENCE CTR   N/A     51  29  42 MISG      30.37R
MARTIN STATE   CLOUDY    48  34  57 CALM      30.38R
ANNAPOLIS      CLOUDY    51  35  54 NE8       30.36R
FORT MEADE*    CLOUDY    45  32  61 NE3       30.39R

$$

MDZ012-015-019>023-201200-
MARYLAND EASTERN SHORE

CITY           SKY/WX    TMP DP  RH WIND       PRES   REMARKS
OCEAN CITY     CLOUDY    49  41  74 NE16G22   30.32R
SALISBURY      CLOUDY    49  38  65 NE7       30.32R
BAY BRIDGE AP* CLOUDY    50  32  50 NE8       30.36R
CAMBRIDGE*     CLOUDY    46  36  66 CALM      30.34R
EASTON*        MOCLDY    48  37  66 NE12      30.38R

$$

MDZ017>025-201200-
SOUTHERN MARYLAND

CITY           SKY/WX    TMP DP  RH WIND       PRES   REMARKS
PATUXENT RIVER CLOUDY    47  36  65 E7        30.34R
ST INIGOES     CLOUDY    49  37  63 NE8       30.32R
LEONARDTOWN*   CLOUDY    48  36  61 NE7       30.35R

$$

MDZ003>005-201200-
NORTH CENTRAL MARYLAND

CITY           SKY/WX    TMP DP  RH WIND       PRES   REMARKS
FREDERICK*     CLEAR     43  32  65 NE6       30.41R
HAGERSTOWN APT PTCLDY    42  27  55 N10       30.37R
WESTMINSTER*   MOCLDY    46  27  46 E9        30.37R

$$

MDZ501>502-201200-
WESTERN MARYLAND

CITY           SKY/WX    TMP DP  RH WIND       PRES   REMARKS
OAKLAND*       PTCLDY    37  12  35 E14       30.32R WCI  29
CUMBERLAND*    PTCLDY    41  32  70 CALM      30.43R

$$

VAZ025>031-201200-
SHENANDOAH VALLEY

CITY           SKY/WX    TMP DP  RH WIND       PRES   REMARKS
WINCHESTER*    MOCLDY    45  27  49 CALM      30.37R
STAUNTON*      CLOUDY    40  32  73 N3        30.35R

$$

WVZ021-048>050-054>055-201200-
EASTERN WEST VIRGINIA PANHANDLE

CITY           SKY/WX    TMP DP  RH WIND       PRES   REMARKS
MARTINSBURG    MOCLDY    45  26  47 N9        30.38R
PETERSBURG*    PTCLDY    38  36  93 CALM      30.38R

$$

VAZ036>039-050-201200-
CENTRAL FOOTHILLS

CITY           SKY/WX    TMP DP  RH WIND       PRES   REMARKS
CHARLOTTESVILL CLOUDY    46  29  51 NE5       30.33R
CULPEPER*      CLOUDY    45  32  61 CALM      30.35R

$$

VAZ055>057-201200-
NORTH AND CENTRAL PIEDMONT

CITY           SKY/WX    TMP DP  RH WIND       PRES   REMARKS
FREDERICKSBRG* CLOUDY    45  39  81 CALM      30.33R
STAFFORD*      CLOUDY    46  37  73 CALM      30.38R

$$

NCZ024-NYZ072-PAZ021-071-VAZ022-071-201200-
OTHER REGIONAL OBSERVATIONS

CITY           SKY/WX    TMP DP  RH WIND       PRES   REMARKS
NEW YORK CITY  PTCLDY    46  31  55 E9        30.49R
PHILADELPHIA   CLOUDY    48  34  58 E17       30.43R
PITTSBURGH     MOCLDY    44  27  51 E3        30.33R
ROANOKE        CLOUDY    47  37  68 NE5       30.31S
RICHMOND       MOCLDY    49  33  54 NE8       30.29R
RALEIGH        MOCLDY    49  33  54 NE9       30.20S

$$

ANZ530>537-201200-
MARINE OBSERVATIONS

STATION/POSITION TIME  TEMP    WIND        PRES
                       AIR SEA DIR/SP/G
                 (UTC) (F)     (DEG/KT/KT) (MB)
THOMAS PT LIGHT  1100   52 53   50/ 17/ 20 1028.0R
BALT KEY BRIDGE  1100   50      20/  9/ 10 1028.2R
COVE POINT       1100   49      70/  8/ 10 1027.0R
LEWISETTA        1100   51 54   50/ 11/ 18 1026.3F
SOLOMONS ISLAND  1100      51                N/A
PINEY POINT      1100           70/  7/  9   N/A

$$




USA.gov is the U.S. government's official web portal to all federal, state and local government web resources and services.